Theta_e
312 312 311 310 310 309 307 306 306 306 306 306 306 306 306 306 306 307 307 307 307 308 308 308 309 309 309 310 309 311 311 312 319 322 322 318 314 314 313 312 313 312 314 315 316 316 315 316 316 315 317 318 321 322 321 321 323 325 328 322 317 318 316 316 318 318 319 318 316 316 316 316 316 316 315 315 315 315 316 315 313 314 313 313 313 313 314 314
309 310 309 309 308 308 307 306 306 307 307 307 306 306 306 307 307 307 307 307 307 308 308 308 309 309 309 310 310 312 311 313 319 319 317 316 313 314 313 313 313 313 315 316 315 315 315 315 315 315 316 318 319 321 321 321 321 322 324 320 317 319 316 316 317 316 318 317 316 316 315 314 315 315 315 315 315 316 316 315 314 315 314 314 314 313 314 314
308 307 307 307 308 307 306 306 306 307 307 308 307 307 307 307 307 308 309 308 308 308 307 309 308 309 310 310 312 312 314 319 321 318 315 314 313 314 313 314 314 313 314 315 315 315 315 315 314 315 316 317 317 318 320 320 320 319 321 321 319 317 316 315 316 316 316 316 316 316 315 314 315 315 315 315 315 316 316 314 314 315 315 314 313 313 314 314
309 308 307 307 307 307 306 306 306 306 307 307 307 307 308 308 307 308 311 309 309 309 308 309 309 310 311 311 312 313 319 325 322 317 315 314 313 314 314 314 314 314 315 314 315 315 314 315 315 315 315 317 317 317 318 318 319 318 318 319 316 315 316 315 315 316 315 315 315 315 315 315 315 315 315 315 316 316 314 313 314 314 314 313 313 313 314 314
310 308 307 307 307 307 307 306 306 306 306 306 307 307 307 308 308 308 310 310 309 309 309 309 310 311 311 312 313 313 321 323 318 317 314 314 313 313 314 314 314 315 315 315 315 315 315 315 315 316 317 317 318 317 316 316 318 318 317 317 316 316 316 316 316 316 315 315 315 315 315 315 315 315 315 315 316 316 313 312 313 313 312 312 313 313 313 313
310 309 308 308 307 308 307 307 306 306 306 306 306 307 308 308 309 307 308 309 309 310 310 310 311 312 312 313 311 316 325 320 316 318 314 314 314 313 314 314 314 314 315 315 315 316 315 315 315 317 317 316 317 317 316 316 317 318 317 317 317 316 316 317 316 315 315 315 315 316 315 315 315 316 316 316 316 314 312 312 311 311 312 312 312 312 313 312
310 309 309 308 307 307 308 307 307 307 307 306 306 307 308 309 310 308 308 308 309 310 311 311 311 312 312 313 315 321 325 318 316 318 313 314 314 313 314 313 314 315 315 316 316 316 315 315 315 316 316 316 317 316 316 316 316 318 318 317 317 316 316 316 316 315 315 315 315 315 315 314 315 316 315 315 313 312 311 311 311 311 311 312 312 312 312 312
310 309 308 307 307 307 307 307 307 307 307 307 306 307 308 309 310 309 309 309 310 310 312 312 312 313 312 313 321 324 322 319 316 315 313 314 314 314 314 314 314 315 316 316 316 317 315 315 315 315 316 316 317 316 315 316 317 318 317 317 316 315 315 316 316 316 315 315 315 315 315 315 315 315 314 314 312 312 311 311 311 311 311 311 311 311 311 311
310 309 308 306 306 307 307 307 306 306 306 306 306 307 308 308 309 309 310 311 311 311 312 313 313 314 310 313 321 319 317 319 316 314 315 315 315 315 315 316 316 315 317 316 316 316 315 316 316 315 316 317 317 317 316 316 317 316 316 316 316 316 316 316 316 316 316 315 315 315 315 315 315 315 314 313 312 312 311 311 311 311 311 311 311 311 310 310
309 310 310 307 306 306 306 307 306 306 306 306 306 306 307 307 308 310 311 312 312 312 313 313 314 314 314 319 320 315 317 318 316 316 316 316 316 315 315 317 316 316 317 317 317 316 315 316 316 316 317 317 316 316 316 316 316 315 316 316 316 316 316 317 316 316 316 316 315 315 315 315 314 315 314 312 311 312 312 311 311 312 311 311 311 310 310 310
310 310 310 310 308 307 308 307 305 306 306 306 306 307 307 307 309 310 312 313 313 313 313 314 315 313 316 320 316 316 319 318 318 318 316 316 316 316 316 315 315 317 317 317 317 316 315 315 315 316 317 316 316 316 315 314 314 315 315 315 316 317 316 317 316 317 317 316 316 315 315 315 313 315 314 311 312 312 312 312 312 312 311 311 310 310 310 309
310 310 310 311 310 309 310 310 307 306 308 308 307 307 307 308 310 311 313 313 313 314 313 314 314 313 317 318 314 317 320 319 319 319 318 318 316 316 316 315 316 317 316 317 317 316 315 315 315 316 316 316 316 317 315 314 314 315 315 316 317 318 318 318 316 317 317 315 315 315 316 316 314 314 312 311 312 313 313 312 312 312 311 311 310 310 309 308
311 311 311 311 311 310 311 311 310 309 310 310 309 309 308 310 311 312 313 313 313 313 314 315 314 314 318 317 315 316 318 318 319 318 318 318 317 317 316 316 316 316 316 316 317 315 314 315 315 316 316 316 317 316 314 314 315 315 316 316 317 319 319 318 317 316 316 315 314 314 317 319 315 313 311 310 312 313 313 313 313 312 311 311 310 310 310 308
311 311 311 311 311 311 311 312 311 310 310 311 312 311 308 310 311 312 314 314 314 314 315 316 314 317 318 315 315 315 314 316 317 317 317 317 316 316 315 315 315 315 315 315 315 314 313 315 315 315 315 315 315 314 314 315 315 316 317 318 319 319 318 317 316 316 315 315 314 314 318 320 316 313 311 311 312 313 314 314 313 312 311 311 311 310 309 308
311 311 310 310 311 312 312 311 310 310 311 313 313 312 310 312 312 313 314 314 316 316 316 316 315 319 318 315 316 314 313 315 316 317 316 317 317 315 315 315 314 314 314 314 314 313 314 315 315 316 314 314 315 315 317 318 317 317 318 320 321 320 318 317 316 316 316 314 313 315 318 319 316 314 312 312 313 313 315 315 314 312 311 310 311 310 309 308
312 311 310 310 311 313 313 311 308 308 312 312 312 313 313 315 315 316 316 315 317 315 317 319 317 317 316 316 317 315 315 316 317 317 316 317 317 316 315 314 314 314 314 314 313 314 315 315 316 317 315 314 315 317 319 320 320 320 319 320 322 321 319 317 316 316 317 315 313 316 318 318 316 314 313 312 313 313 314 315 313 312 311 310 310 310 309 308
312 312 311 310 311 313 312 311 309 308 311 311 312 315 315 316 316 316 316 315 316 315 317 320 317 315 315 315 316 317 318 318 318 318 315 316 317 315 315 315 315 314 314 314 314 314 315 315 316 317 316 315 316 319 321 321 322 321 320 321 321 321 319 318 317 317 317 316 315 316 316 317 317 315 313 312 312 313 314 315 313 312 311 311 311 310 310 309
311 311 311 311 310 311 311 311 311 309 310 311 313 315 316 316 316 317 318 316 316 317 316 316 317 316 315 313 315 317 318 319 319 318 315 314 315 315 315 315 315 315 314 315 315 315 315 316 316 317 318 317 317 319 322 323 322 320 321 321 321 321 320 319 318 317 317 316 316 317 317 317 318 314 312 313 313 313 315 315 313 312 311 311 310 310 309 309
312 311 311 311 310 310 311 311 312 310 311 313 314 316 316 316 316 319 321 318 317 318 315 317 317 314 315 315 315 318 318 318 318 317 315 314 314 315 315 315 315 315 315 317 317 315 316 318 319 321 321 319 318 319 321 323 321 320 321 321 321 321 320 320 319 316 316 317 317 318 318 318 319 316 313 313 313 314 315 314 313 311 310 310 310 310 310 308
313 312 311 311 310 311 312 312 311 311 313 315 317 319 318 318 319 319 320 319 317 316 314 317 316 313 315 317 316 316 317 317 317 317 315 314 315 315 315 315 316 316 316 320 320 316 317 321 323 323 321 320 320 319 319 320 320 320 321 321 321 321 320 321 319 316 316 318 318 319 320 319 320 319 315 313 313 314 315 314 312 311 310 310 310 310 309 308
313 312 311 311 311 312 313 313 312 312 314 317 319 321 320 319 319 317 319 321 318 317 316 317 316 315 316 316 315 315 316 316 316 317 315 314 315 315 315 315 317 318 317 320 320 317 318 322 323 322 320 320 320 320 319 319 320 319 320 320 320 322 321 321 320 316 316 319 319 319 320 319 320 320 317 314 313 314 314 313 312 311 311 311 311 310 309 307
312 312 311 312 313 313 314 314 313 313 315 317 319 321 321 319 318 316 318 320 319 318 317 316 317 318 317 316 315 316 317 317 316 317 315 314 315 316 316 316 317 319 318 319 321 321 322 322 320 319 320 320 319 319 319 319 320 320 320 321 322 322 322 322 320 316 315 319 320 320 321 320 320 321 318 314 313 314 314 314 313 312 311 310 310 309 308 307
312 312 311 313 314 314 315 315 314 314 315 317 319 320 320 319 315 315 318 319 318 319 318 317 316 316 317 316 315 316 318 317 317 318 315 314 315 316 316 316 317 319 319 320 321 324 324 322 320 319 320 320 319 318 319 318 319 321 321 322 323 323 323 324 321 317 316 317 320 320 320 319 319 320 319 314 313 313 311 311 313 312 311 310 310 309 308 307
312 312 311 313 315 314 315 315 314 315 315 316 318 319 320 318 315 317 321 320 316 317 320 319 317 317 318 317 316 316 316 316 317 318 315 315 315 316 317 317 317 318 319 319 320 322 322 321 320 320 320 319 320 319 319 320 320 323 324 323 324 323 324 324 323 320 318 318 319 319 321 322 320 321 319 313 311 310 309 309 310 310 310 309 309 309 308 308
312 312 312 313 315 315 315 315 315 315 316 317 317 318 319 319 316 317 321 319 316 319 322 321 321 320 318 316 316 316 316 315 317 317 315 315 316 317 317 317 318 318 319 319 320 320 320 320 321 321 320 320 320 320 322 323 321 323 326 324 323 323 323 325 326 325 325 326 322 319 327 331 324 322 321 313 311 310 309 309 309 309 308 307 307 307 307 308
313 312 312 313 315 315 315 316 316 316 317 317 317 317 317 319 318 316 319 318 317 321 323 322 321 320 319 317 315 316 317 316 317 317 315 316 317 317 317 318 318 318 319 319 320 321 319 319 321 322 322 323 324 322 324 326 323 323 327 328 326 324 324 326 325 326 329 329 323 319 329 332 324 322 321 314 312 311 309 308 309 308 306 306 306 306 305 306
313 313 313 314 315 315 316 317 316 316 317 317 317 316 316 318 316 316 319 319 318 322 323 320 318 318 319 317 315 316 318 317 317 316 315 315 316 316 318 318 318 318 318 319 323 323 320 320 323 323 324 327 326 323 323 324 324 327 328 328 327 323 325 326 325 328 328 326 323 320 324 327 324 323 320 315 313 312 309 309 309 307 306 306 306 305 305 304
313 313 313 314 315 315 317 317 317 317 317 318 318 316 316 317 315 318 320 318 320 323 322 318 315 316 318 317 316 317 316 318 320 316 312 313 314 316 317 318 318 318 317 320 324 324 321 322 325 325 325 327 324 323 326 325 325 326 324 325 326 324 325 325 325 328 326 325 326 324 322 327 328 324 319 315 316 316 311 309 309 307 306 306 306 305 304 304
314 313 314 314 315 315 317 318 318 317 317 319 319 318 317 316 315 320 321 318 321 323 320 317 316 317 319 317 317 317 315 316 317 314 311 313 314 314 316 317 317 319 318 318 322 325 322 318 321 324 324 324 322 323 328 328 325 324 323 324 324 323 323 323 325 326 325 325 326 325 324 327 330 326 320 318 318 318 315 311 309 308 306 306 306 305 304 304
314 314 313 314 315 315 316 318 318 319 319 318 318 318 317 317 316 320 322 320 321 322 316 315 317 318 319 319 319 318 315 314 313 313 313 314 313 313 315 316 316 319 321 321 321 321 318 314 317 321 321 320 319 319 321 325 324 322 323 323 322 322 321 322 323 322 324 326 325 324 324 325 330 330 323 319 319 319 316 312 310 308 307 307 305 304 304 303
315 315 314 313 314 315 316 317 318 319 320 318 318 318 318 319 319 319 321 318 317 320 315 314 318 319 319 321 321 318 316 315 313 314 315 315 314 315 317 318 319 320 323 324 323 320 317 317 319 319 317 317 320 319 317 318 321 322 322 323 323 323 321 322 322 321 325 327 325 322 323 324 328 329 321 318 318 318 316 312 309 308 306 306 305 303 303 302
316 315 315 314 314 315 316 317 317 319 319 317 318 318 319 322 323 322 320 313 312 319 319 318 319 319 319 321 322 319 317 316 315 315 316 316 317 316 317 320 321 323 325 324 323 324 322 321 321 320 317 318 322 323 318 317 319 322 323 324 326 326 324 325 325 323 325 326 320 319 323 325 325 324 320 319 317 316 314 311 309 307 306 306 304 303 302 302
317 316 316 315 315 315 316 317 317 318 319 317 318 320 322 323 323 323 319 313 315 321 321 320 320 319 320 322 323 320 318 318 315 316 317 317 318 317 317 320 320 323 327 324 324 328 327 324 322 320 318 318 321 322 321 320 319 321 323 325 327 328 327 329 327 326 328 324 319 318 321 325 326 322 320 317 313 313 314 311 309 307 306 305 304 303 303 302
318 316 316 316 315 315 316 317 318 318 317 317 319 322 325 323 322 321 319 316 318 322 321 320 321 320 320 322 322 320 320 320 316 316 319 319 319 320 319 319 319 321 324 324 325 327 329 329 324 321 320 319 319 320 322 321 318 319 321 322 325 327 329 331 329 329 329 323 318 318 322 327 328 321 314 311 309 311 312 311 309 308 306 305 304 303 302 302
319 317 316 316 316 316 316 317 318 317 317 318 320 323 325 324 322 320 320 318 320 321 320 320 322 322 322 323 321 318 320 321 317 317 320 320 320 321 320 319 318 320 322 324 327 326 327 330 324 319 319 318 318 320 320 321 320 319 320 322 324 325 326 329 326 323 324 323 319 320 324 325 321 314 309 309 309 309 310 310 308 307 305 304 303 302 302 301
318 317 317 317 317 316 317 317 317 317 317 319 322 324 324 323 323 321 320 318 320 321 321 322 323 324 325 324 321 319 321 321 319 319 320 320 320 320 321 321 318 319 322 323 327 327 328 328 322 318 319 317 318 321 320 322 323 321 321 323 323 322 321 325 324 319 320 325 323 321 323 322 317 315 311 309 309 309 309 309 307 306 305 304 303 302 301 301
317 317 317 317 317 317 317 317 317 316 317 320 323 324 323 323 322 322 321 319 319 320 321 323 324 325 326 325 322 320 321 321 319 320 320 320 321 321 321 322 320 319 320 322 326 328 328 327 320 318 320 316 314 317 318 320 322 321 323 322 321 323 321 321 324 324 323 326 324 322 323 323 322 321 313 309 311 310 309 309 307 306 305 304 303 303 302 301
317 317 317 317 318 318 318 318 317 315 317 320 323 323 323 322 321 321 322 321 320 320 321 322 323 324 325 326 324 320 321 323 319 320 322 321 322 322 319 321 322 320 319 321 325 326 326 327 321 317 318 315 312 316 319 319 318 318 321 320 321 325 325 322 323 325 326 326 325 324 324 322 322 322 317 312 312 310 308 309 308 306 305 304 304 303 302 301
317 318 319 318 317 318 318 317 316 316 318 320 321 322 323 322 323 323 322 321 320 320 321 321 321 323 324 325 324 321 320 322 320 320 323 322 322 323 320 321 323 321 320 320 323 324 324 327 323 316 315 315 314 317 321 321 317 315 317 319 320 321 323 324 323 324 326 326 325 326 327 326 322 320 321 318 311 309 308 308 308 307 305 304 304 303 302 301
318 320 320 319 318 318 318 316 316 317 319 319 318 319 321 322 323 323 321 322 323 321 322 323 322 323 323 323 324 322 320 322 321 320 322 322 322 323 320 320 323 323 321 320 322 323 322 324 325 318 314 316 317 318 319 320 318 316 317 319 320 318 318 321 322 322 323 325 325 325 326 328 322 314 317 317 311 309 309 308 308 307 306 305 304 303 303 302
318 321 322 319 318 318 317 316 318 319 318 317 317 318 320 321 323 323 322 323 324 321 321 324 324 324 325 323 324 323 321 322 322 321 322 321 322 324 322 321 322 323 322 321 322 322 322 322 324 320 316 317 319 318 316 318 319 318 317 318 319 319 319 321 323 322 321 323 325 324 326 327 320 312 314 316 313 311 309 308 308 307 307 306 305 304 303 302
319 322 321 319 318 318 317 318 319 319 317 316 316 317 319 321 322 323 322 322 323 321 319 321 323 326 327 325 324 324 322 322 323 322 322 322 322 324 323 322 322 321 321 322 321 322 324 322 322 322 318 317 317 315 314 316 318 317 317 318 319 319 319 322 324 323 322 323 323 323 325 324 316 312 312 313 313 313 311 309 308 307 307 307 306 305 304 303
321 321 319 318 318 317 318 320 320 318 316 315 315 317 319 320 321 322 322 321 321 322 321 321 322 324 326 326 325 325 323 322 323 323 322 323 322 319 316 319 321 320 319 321 320 321 323 322 321 322 320 317 315 314 314 314 315 316 318 318 319 318 318 320 322 322 322 324 323 322 324 322 314 312 312 310 311 313 312 311 309 308 308 307 307 306 304 304
319 318 316 317 318 317 320 321 319 317 315 315 316 317 318 319 320 321 322 321 321 322 321 322 323 323 324 324 324 325 324 323 324 324 323 326 322 313 311 316 319 318 320 322 321 319 321 322 322 322 323 322 318 317 317 316 314 316 318 317 317 319 320 320 320 319 320 323 323 322 323 321 315 312 311 309 310 311 311 311 311 310 309 308 307 306 305 305
316 315 314 314 314 316 321 321 318 315 314 314 315 316 318 320 320 320 321 320 320 321 320 322 323 323 323 323 323 325 325 323 325 325 325 326 320 311 311 315 316 318 320 320 322 320 322 323 321 322 325 325 324 323 322 319 316 315 316 317 317 319 320 320 320 320 320 321 322 321 322 319 315 313 311 309 309 309 309 310 311 310 309 308 308 308 307 305
316 317 315 314 313 313 317 319 318 316 313 313 315 316 317 319 318 318 320 320 321 321 321 322 323 322 322 323 322 323 323 322 323 324 324 325 318 311 311 312 314 317 317 318 320 321 322 322 320 322 324 324 325 324 321 320 318 317 317 317 317 318 319 319 320 319 321 323 322 320 320 319 315 314 313 311 310 309 308 309 310 310 310 309 309 308 307 305
317 318 316 317 316 314 314 315 317 318 315 315 316 316 317 319 318 317 317 320 321 320 320 320 320 321 322 322 321 321 322 321 320 321 323 323 316 310 309 311 313 314 314 316 318 318 320 320 319 321 322 322 322 320 319 319 319 318 318 317 316 317 318 320 320 319 321 324 322 320 323 323 319 315 315 314 313 310 308 307 308 309 309 308 308 307 306 304
316 318 317 317 317 316 315 315 316 317 317 316 316 316 317 317 318 318 317 317 319 319 319 319 318 319 320 320 321 322 321 320 319 319 321 320 315 312 312 312 311 311 313 315 314 316 319 319 319 320 320 320 318 315 317 318 318 317 318 318 316 316 317 319 319 319 320 321 321 322 324 323 319 315 315 314 313 311 308 306 306 307 308 308 307 307 306 304
313 315 314 314 316 317 316 315 316 317 317 316 316 317 317 317 317 317 316 315 317 318 319 320 318 318 319 319 320 321 320 321 320 318 318 317 316 315 315 315 313 311 313 315 314 316 318 318 319 320 319 319 316 313 315 316 317 318 318 318 318 316 316 317 317 317 319 319 319 321 322 321 318 315 314 314 312 311 309 307 307 308 308 308 307 306 306 305
312 313 313 314 314 315 316 315 316 317 317 317 316 316 317 317 317 316 315 314 317 317 317 319 319 317 318 319 320 320 319 319 320 319 317 315 316 315 315 317 315 311 312 314 313 314 315 317 318 317 318 319 314 312 314 315 316 318 317 317 317 316 316 316 316 316 317 318 318 317 318 320 317 315 315 314 311 310 310 309 308 308 308 307 306 306 305 304
305 306 308 313 314 313 315 315 315 316 317 316 316 316 316 317 316 316 315 314 315 316 315 317 318 317 317 317 319 320 318 318 319 319 316 316 317 316 316 317 316 313 312 313 313 314 313 315 316 315 318 319 313 311 314 314 315 317 316 315 315 315 316 315 315 315 315 316 316 315 317 318 316 316 316 314 313 313 312 310 309 309 309 308 307 307 305 304
302 303 306 311 315 314 314 314 315 315 315 315 315 315 315 316 316 317 316 314 314 315 314 315 316 317 317 317 317 318 318 317 316 315 314 314 316 316 315 315 315 314 313 312 313 313 313 314 315 315 319 318 311 310 313 314 317 318 317 316 315 314 315 314 315 315 314 315 317 317 317 317 318 319 317 316 318 317 315 312 310 310 310 309 308 308 306 306
Wind_Speed
3 3 3 3 4 4 5 6 5 4 4 4 4 3 3 4 4 4 4 4 4 3 3 2 2 3 4 5 6 7 9 7 3 3 2 2 5 5 4 5 5 5 5 6 7 7 6 3 2 5 5 2 2 2 2 2 1 1 1 1 2 2 3 3 4 3 3 5 4 4 3 4 1 2 2 0 2 4 3 4 8 9 10 9 8 8 9 12
3 3 4 4 4 4 4 5 5 4 4 4 4 4 4 4 4 4 4 4 3 3 3 2 2 2 4 5 7 8 10 8 2 6 6 5 7 6 6 7 6 6 6 8 9 8 7 4 5 6 3 1 0 1 1 2 2 1 2 1 2 3 3 4 6 5 2 4 4 5 4 3 2 2 2 2 2 4 3 4 8 8 9 9 10 10 11 13
3 3 4 5 4 4 4 5 4 3 3 4 4 4 4 4 4 3 3 3 3 3 2 2 3 2 4 5 6 8 10 7 2 5 5 7 8 7 7 7 8 8 8 8 8 8 7 5 6 6 3 0 1 1 1 2 3 1 2 2 3 3 4 5 6 6 5 5 3 4 4 1 1 2 2 3 5 3 2 4 5 7 6 6 8 10 12 13
2 3 4 4 4 4 4 4 4 3 4 4 4 4 4 3 3 2 2 3 3 3 3 3 2 2 4 5 7 8 7 4 1 5 7 8 8 7 7 7 8 8 8 7 5 5 6 7 6 5 3 0 2 1 1 2 2 2 2 2 3 2 3 5 6 7 6 5 4 3 2 2 1 2 1 2 5 2 4 4 4 5 6 5 6 8 11 12
2 2 2 3 3 4 4 4 4 4 4 4 4 3 3 3 3 2 2 3 3 3 3 3 2 2 3 5 6 7 4 1 2 7 8 8 7 7 5 5 6 7 8 4 5 5 7 6 4 4 2 1 2 1 2 3 1 1 2 4 4 3 2 4 5 6 4 3 2 1 2 2 2 2 3 2 2 1 3 4 5 5 5 5 5 8 10 10
2 2 2 3 3 3 3 4 4 4 4 3 3 3 3 3 3 3 3 3 3 2 2 3 2 3 3 4 6 5 3 0 4 8 8 7 6 5 3 3 4 7 6 4 5 5 5 4 3 2 2 2 3 3 2 2 1 1 2 4 5 4 2 3 4 3 1 1 1 1 1 3 3 4 2 2 2 3 4 4 5 5 5 6 7 8 8 8
3 3 3 4 4 3 3 3 4 4 3 3 3 3 3 3 3 3 3 3 3 3 3 3 3 3 3 4 5 3 2 1 4 8 8 7 6 4 2 1 2 5 5 4 5 5 3 4 4 3 3 2 3 3 2 2 2 2 0 3 4 4 2 3 5 3 1 2 2 1 2 3 4 3 1 4 6 6 6 5 6 6 6 7 8 7 7 8
4 4 5 5 5 5 4 4 4 3 3 4 4 4 4 3 3 3 3 3 4 3 3 3 3 3 3 3 3 2 3 1 5 9 8 6 5 3 2 0 2 5 5 4 6 6 4 4 3 3 3 3 3 2 2 2 2 1 2 2 2 1 2 2 5 5 4 3 3 1 1 5 5 1 1 5 7 6 6 6 6 6 6 7 6 6 7 8
5 5 6 6 6 5 5 5 4 4 4 4 5 4 4 4 3 3 4 4 4 4 4 3 3 3 3 3 3 3 1 4 7 8 7 5 4 3 2 1 2 3 3 3 3 4 3 3 4 4 4 3 3 2 2 1 1 2 3 2 1 2 4 4 5 5 6 4 3 3 5 7 3 3 2 5 8 6 6 5 5 5 5 6 5 5 7 7
7 6 6 6 6 6 6 6 5 4 5 5 5 5 5 5 4 4 4 4 4 3 3 3 3 2 2 3 3 2 2 6 7 6 5 4 3 3 3 2 1 2 3 2 3 4 3 4 4 3 3 2 2 2 1 1 0 1 3 4 5 6 5 4 5 5 4 3 5 5 6 4 3 2 1 5 7 6 7 5 4 5 5 5 5 5 7 8
7 7 6 6 6 6 6 6 6 5 5 5 5 6 6 5 4 5 4 4 4 3 3 2 2 2 3 3 3 2 3 6 6 5 5 5 5 5 3 2 1 2 3 2 1 4 5 5 4 2 1 1 1 1 1 2 1 1 2 5 7 7 7 6 6 5 3 1 4 5 5 2 4 1 3 6 7 7 7 6 5 5 5 5 5 5 6 8
8 8 7 6 7 6 6 5 6 6 6 6 6 6 6 5 5 4 4 4 3 3 2 1 2 2 3 3 4 3 6 7 6 5 5 5 5 5 3 2 2 2 3 4 2 2 3 4 4 4 1 2 2 1 1 1 2 2 1 4 6 6 7 8 8 4 4 2 2 3 3 4 5 2 5 8 6 6 6 6 5 5 5 5 5 5 5 7
10 9 8 8 7 7 6 6 6 6 6 5 6 7 6 5 4 4 3 3 3 2 2 2 2 1 2 2 3 6 8 7 6 5 5 4 4 3 3 2 2 2 2 4 3 2 1 2 3 4 2 3 2 0 1 1 1 2 3 3 4 5 4 5 6 6 5 3 4 5 1 5 6 6 6 7 6 6 6 6 6 5 5 4 4 5 5 7
12 10 9 9 8 7 8 7 7 7 6 5 6 7 6 4 4 3 3 3 2 2 1 2 2 1 1 2 2 6 8 6 5 5 6 5 4 4 3 3 2 1 1 1 2 3 2 2 3 2 2 2 1 0 2 2 2 2 3 2 2 2 2 1 5 7 5 1 3 5 2 4 5 7 6 6 7 7 6 6 6 5 5 4 4 5 5 6
13 12 11 11 9 7 10 11 10 7 6 6 7 6 4 3 3 2 2 2 1 2 1 2 3 1 2 2 2 3 6 5 5 7 8 7 5 4 4 4 3 3 2 2 3 4 3 1 2 1 2 1 1 1 3 3 3 3 2 2 2 2 3 2 4 7 4 1 4 4 2 2 4 6 6 6 6 7 6 6 6 5 6 5 4 5 5 6
14 13 13 12 9 8 12 14 12 8 6 7 7 4 1 1 1 2 2 1 2 3 2 1 4 3 3 2 2 2 4 4 7 9 9 9 5 4 8 6 5 4 3 4 4 4 2 1 1 1 0 1 2 3 3 4 3 3 3 3 3 3 3 3 2 4 2 2 5 5 3 1 3 6 6 6 7 7 6 6 7 5 5 5 5 5 5 5
15 14 13 12 10 10 11 10 9 6 5 6 5 1 2 2 2 2 1 2 4 4 2 1 2 3 2 1 2 2 4 6 9 9 8 9 6 6 9 6 6 6 5 5 3 3 1 1 1 1 1 2 3 3 2 3 4 3 4 2 5 5 4 2 1 3 3 3 4 6 6 4 3 8 7 7 8 7 7 7 7 6 5 5 5 4 5 5
15 15 14 13 12 11 8 6 7 6 5 4 2 3 3 3 3 3 2 4 5 3 1 2 2 2 3 3 2 2 7 9 10 8 7 10 8 8 8 5 6 7 6 3 1 2 1 1 2 1 2 3 4 4 3 4 4 3 1 2 4 3 4 3 1 3 6 4 4 5 6 7 5 8 7 7 8 7 7 6 7 6 6 5 5 5 5 5
15 15 14 14 13 10 7 5 6 4 2 1 4 6 5 3 2 2 3 4 4 2 1 3 5 1 1 4 5 6 8 11 9 6 7 10 9 7 6 4 5 5 4 2 2 4 2 1 2 1 3 4 5 6 6 6 5 4 2 1 3 3 4 4 1 4 4 2 5 6 6 8 6 6 8 7 7 7 6 6 6 5 6 5 5 5 5 5
15 14 14 13 11 9 5 3 4 4 3 5 5 3 2 1 1 2 5 7 7 7 3 5 9 3 1 5 7 9 9 8 4 4 9 11 10 8 5 4 4 2 2 3 3 2 1 2 4 4 5 6 7 9 9 8 7 4 2 2 4 3 5 6 2 3 2 0 5 6 6 8 8 6 8 9 6 7 6 6 6 5 6 6 5 5 5 6
15 14 13 12 10 8 4 1 5 6 5 5 3 2 0 0 2 0 2 7 12 15 10 6 8 4 1 7 11 12 7 2 1 5 11 11 10 8 5 5 4 2 5 5 3 2 0 4 6 7 8 8 4 4 6 7 7 4 2 3 4 3 5 6 2 4 3 1 3 5 7 9 9 8 6 10 8 8 8 8 8 7 6 5 6 6 5 6
15 15 14 13 11 9 5 2 5 6 5 5 4 5 2 3 1 3 1 3 8 16 15 11 8 3 3 8 13 10 2 2 4 5 10 10 8 6 4 6 5 4 6 5 3 2 2 6 8 9 8 6 1 3 1 2 3 3 2 2 4 3 5 6 2 4 4 1 3 5 7 8 9 9 5 10 9 5 3 3 5 7 7 6 5 6 6 6
15 15 15 14 11 10 7 4 6 5 6 6 6 6 2 3 1 4 1 3 4 11 11 11 11 8 7 7 11 9 3 5 6 6 13 11 6 4 5 6 6 5 6 6 5 3 5 5 8 11 8 5 3 2 1 2 2 3 3 3 4 3 3 4 1 3 4 2 3 5 7 7 9 10 4 5 3 4 4 5 5 3 5 6 5 6 6 7
16 17 17 16 14 11 8 6 7 7 9 9 10 9 2 2 1 4 0 3 4 6 8 13 12 10 10 7 12 12 5 6 5 7 16 13 6 3 5 6 7 6 5 8 8 7 8 4 3 8 8 6 4 3 4 2 3 4 6 5 5 4 5 5 2 1 3 3 4 4 6 6 9 10 5 3 3 4 3 4 4 2 4 5 5 5 5 6
18 19 17 19 17 13 10 8 8 9 10 10 14 14 8 4 2 3 1 2 5 2 2 9 7 7 10 9 14 11 4 7 6 8 18 16 8 4 4 5 5 6 7 9 9 9 10 5 3 5 5 5 5 5 5 6 3 4 5 7 8 8 6 5 5 3 2 3 3 2 3 5 4 6 7 4 3 4 4 5 5 4 4 4 4 5 5 5
20 20 19 20 17 15 12 7 8 10 9 11 13 11 11 7 1 2 1 2 5 2 2 5 5 8 11 10 12 7 1 6 2 11 20 14 7 3 3 4 3 5 6 6 6 4 3 2 3 5 5 5 5 5 5 6 3 3 3 2 3 4 2 3 4 2 1 4 1 3 2 4 4 2 5 6 5 6 5 5 7 6 5 5 6 5 5 5
21 21 22 21 18 19 13 4 9 12 6 8 11 10 13 11 3 1 1 2 6 4 5 2 3 7 10 12 13 6 1 4 6 10 11 6 5 1 1 6 4 3 2 1 3 1 3 4 3 4 5 5 6 4 4 5 3 3 3 4 4 2 1 1 3 3 3 3 2 3 3 4 7 4 5 7 6 6 6 7 7 7 7 6 6 6 7 6
21 23 24 22 21 23 15 4 10 14 5 3 7 11 12 11 6 2 2 1 3 4 5 1 1 3 6 11 14 6 2 5 6 3 2 2 2 2 2 7 5 5 4 3 5 1 3 5 5 6 6 5 4 2 3 7 5 2 0 3 5 3 1 1 3 4 3 3 3 4 4 3 7 2 5 6 6 6 8 9 9 8 8 7 7 7 7 7
21 23 26 24 22 23 18 8 8 12 10 5 6 11 12 9 6 0 1 3 2 3 2 2 3 3 6 9 10 6 3 2 1 1 2 2 1 2 3 5 3 5 6 8 8 1 2 3 3 5 5 4 2 3 2 4 4 3 2 5 5 2 2 1 3 2 2 4 5 6 5 3 5 2 4 4 4 7 8 8 8 8 8 7 7 7 7 7
24 23 26 26 23 24 22 16 11 10 12 9 5 11 13 7 3 2 2 4 2 1 2 2 3 6 10 10 7 6 4 2 2 2 2 1 1 2 1 1 3 2 3 6 7 1 3 2 1 1 1 2 5 5 5 4 5 5 4 5 3 1 1 1 2 1 1 5 6 9 9 6 4 3 5 4 4 6 7 6 8 9 9 8 7 7 7 6
29 26 28 29 28 27 20 16 17 13 11 12 7 11 11 2 0 5 5 2 2 1 4 2 4 9 13 12 8 6 5 4 4 6 4 3 1 1 1 1 0 1 1 3 4 1 3 2 0 0 1 4 5 4 4 5 3 4 4 4 2 0 2 2 1 1 2 6 4 8 10 10 7 4 3 3 3 4 9 9 11 12 10 9 8 8 7 6
33 30 31 32 30 29 21 16 21 19 11 10 10 8 6 2 1 7 5 3 0 4 7 6 7 10 12 12 9 9 8 6 6 7 5 5 5 4 6 5 5 3 3 4 3 2 3 5 4 2 1 4 5 3 3 4 1 3 4 5 3 0 1 1 2 2 4 6 3 2 4 7 8 6 4 4 1 4 7 9 12 13 12 10 9 9 8 7
37 34 34 35 33 32 27 19 21 24 17 11 8 3 1 5 7 10 9 5 1 2 5 7 9 11 13 10 6 8 6 4 7 7 5 6 6 6 7 7 6 5 2 5 5 3 2 3 6 4 2 4 8 6 2 1 3 6 6 5 5 3 2 3 3 3 4 4 3 3 1 2 3 5 5 2 3 4 2 8 11 12 12 11 10 9 8 8
39 37 38 39 37 35 31 23 21 26 23 13 7 3 4 7 10 12 14 10 2 2 4 7 10 11 11 8 6 9 5 2 8 8 5 6 5 6 7 8 11 7 1 3 4 5 4 4 5 7 2 6 11 9 6 5 6 7 6 5 5 4 3 3 3 3 3 1 3 3 1 3 2 2 1 3 4 5 4 7 10 9 10 10 9 9 8 8
40 42 40 37 38 39 35 27 23 25 22 12 5 7 9 10 10 11 13 9 4 3 4 8 9 9 8 4 5 8 3 2 8 7 5 7 6 7 8 9 13 9 4 3 2 5 7 5 3 4 2 9 10 6 4 7 4 5 4 4 5 3 3 2 2 2 1 1 2 2 2 4 3 1 0 3 4 4 4 8 11 10 10 10 9 9 9 8
40 41 38 35 38 42 41 33 27 28 21 9 6 9 11 11 8 6 7 7 6 6 8 7 6 6 7 4 4 6 2 3 7 6 4 6 5 7 8 7 12 13 9 7 3 3 5 3 1 2 2 4 4 2 2 4 2 3 4 5 4 2 2 1 1 1 2 3 3 4 3 4 1 1 2 4 4 2 0 6 11 10 11 11 9 9 9 9
37 33 30 34 39 42 43 37 31 29 17 7 9 10 9 10 6 3 5 7 8 10 9 6 5 6 7 5 5 8 4 3 7 6 3 5 4 8 11 7 11 16 14 9 3 1 4 1 2 0 1 1 2 2 1 1 2 4 4 4 2 3 3 1 1 2 1 5 4 5 6 3 2 3 2 4 5 4 4 6 9 10 11 11 9 9 10 9
32 24 20 32 41 39 41 41 36 26 8 4 11 12 9 8 6 4 4 5 9 12 9 7 7 7 8 7 6 9 9 5 7 6 4 5 3 8 13 8 9 16 16 10 3 2 2 2 3 2 1 1 2 1 1 2 2 4 2 2 3 1 1 3 2 2 3 5 4 4 6 6 6 5 4 6 9 9 8 7 9 12 12 11 10 10 10 10
26 13 10 28 41 39 42 45 33 17 6 6 10 11 9 7 6 3 2 2 7 11 10 10 8 6 8 8 6 10 11 8 9 7 5 6 4 7 13 9 8 14 15 12 7 2 1 2 3 3 2 2 2 1 4 3 1 2 3 3 1 2 3 3 3 2 3 4 5 3 4 4 5 5 8 12 12 12 12 10 10 12 12 11 10 11 11 11
15 5 4 23 41 42 45 39 19 8 7 9 8 7 7 6 6 4 2 2 3 4 6 10 10 8 8 9 7 9 10 9 10 8 6 7 4 4 10 10 8 9 11 11 7 2 2 2 2 2 3 2 2 4 8 9 7 4 1 2 2 2 1 1 2 2 2 3 4 4 4 5 2 0 5 11 11 13 14 13 11 10 11 11 10 11 11 10
8 5 3 23 44 46 38 21 7 7 8 9 10 8 7 5 6 6 2 1 1 1 0 2 6 7 7 8 8 8 8 8 9 7 5 8 6 3 5 8 9 8 8 7 6 4 3 2 3 2 1 3 4 4 5 5 6 6 6 7 7 5 3 2 4 3 2 2 3 3 6 5 2 3 3 2 7 11 12 12 10 9 10 10 9 11 11 10
5 6 5 28 50 45 26 9 5 8 7 10 10 7 4 2 4 7 6 2 1 0 0 1 1 3 3 6 6 7 7 6 8 8 6 8 8 4 2 1 7 12 9 5 6 4 3 2 2 3 2 3 2 1 3 2 2 1 3 5 5 6 6 5 6 3 1 2 1 0 4 4 2 3 5 4 3 5 8 9 8 8 9 9 9 10 10 9
4 4 8 35 56 42 16 7 8 7 7 8 6 4 4 4 5 6 7 7 5 2 2 1 0 0 0 1 3 7 8 6 8 8 7 7 5 1 3 3 6 12 8 3 3 2 3 3 3 2 0 1 1 2 2 3 2 1 4 4 6 7 7 6 4 2 2 3 2 1 5 5 2 3 4 4 5 5 6 9 9 7 7 8 9 9 10 9
3 1 3 28 52 39 13 7 10 8 9 8 7 9 7 5 7 8 8 10 8 4 5 4 1 1 1 2 2 4 6 5 7 6 5 5 2 2 4 4 2 7 5 1 3 5 3 2 3 3 2 1 1 0 1 2 2 4 4 5 7 7 7 4 1 0 4 6 7 5 6 4 1 2 2 2 4 6 5 7 9 8 7 8 8 8 9 8
2 1 2 9 24 22 10 8 12 10 9 10 11 15 12 5 5 8 8 9 8 6 6 4 1 2 2 3 3 1 2 1 2 2 1 1 0 3 4 5 4 2 2 2 0 4 5 4 5 7 8 8 5 3 3 3 3 3 4 8 10 11 11 6 2 5 9 6 8 8 7 2 1 1 2 2 4 5 5 5 7 7 8 8 8 7 8 8
1 2 2 2 2 4 3 4 11 11 11 12 10 12 16 11 3 2 6 9 8 6 3 0 1 2 3 3 3 4 4 0 3 1 2 2 1 2 3 3 4 3 3 3 3 1 3 3 8 11 12 11 7 4 2 3 5 6 9 13 14 15 14 8 6 9 7 4 6 10 6 3 3 5 6 5 6 6 5 6 6 6 7 7 7 7 7 7
3 3 4 4 1 2 2 2 7 11 13 15 10 9 17 16 5 2 5 7 7 7 2 2 2 7 8 9 9 8 7 3 1 2 3 3 2 1 2 2 3 4 2 1 1 2 4 4 10 14 15 10 4 2 1 1 5 9 11 15 15 14 14 13 13 11 7 5 8 8 8 7 7 8 8 7 7 7 7 7 7 7 7 7 7 8 7 7
5 3 3 5 3 5 7 6 9 13 14 15 9 7 14 17 11 8 6 3 5 8 5 2 7 14 15 13 11 8 5 3 3 5 4 3 3 2 2 2 1 2 2 1 1 2 4 6 8 10 12 7 3 2 2 1 2 3 5 11 14 16 18 18 20 16 10 7 8 5 9 10 7 7 8 7 8 7 8 8 7 8 8 7 8 8 8 8
2 0 1 3 2 5 10 9 9 12 15 14 10 9 14 18 18 12 6 5 5 10 11 10 13 16 14 12 10 8 7 8 9 9 6 4 4 4 2 1 1 1 2 2 1 1 3 4 3 4 8 5 1 3 2 1 1 3 4 7 9 14 18 19 20 15 8 7 5 3 4 6 2 5 7 6 6 6 6 6 7 7 8 8 8 8 8 9
2 1 1 1 1 2 6 6 6 8 11 12 12 11 12 17 20 13 7 9 11 10 11 18 20 15 14 11 10 11 14 14 13 10 8 7 5 5 4 4 3 2 2 3 2 0 2 3 3 4 5 5 1 2 1 1 1 3 7 7 5 7 11 14 15 9 6 11 6 4 2 5 1 2 4 5 5 5 6 6 6 6 7 8 8 8 8 8
0 2 0 3 3 3 5 6 7 8 7 8 11 11 12 17 20 15 8 9 13 11 14 23 20 10 9 11 13 17 17 13 10 8 10 10 8 6 5 4 6 6 4 4 3 3 4 3 2 4 6 6 2 1 1 2 2 5 12 12 7 5 7 9 9 7 9 11 5 3 4 4 1 4 5 5 5 6 5 5 5 5 7 8 8 8 8 9
1 3 2 2 4 5 6 6 8 9 6 8 12 13 13 15 14 12 7 6 10 11 13 18 13 6 6 13 18 18 11 6 4 3 6 6 4 5 4 4 7 8 7 6 4 3 6 5 3 5 7 4 1 3 3 4 1 9 14 11 11 9 8 6 4 5 8 6 4 5 6 4 4 4 3 2 3 5 6 6 6 7 8 8 8 8 8 9
Wind_Direction
153 158 163 164 178 198 183 171 176 174 180 183 183 183 179 183 187 191 193 202 211 221 240 271 294 321 328 326 335 330 339 341 325 17 51 89 91 106 89 73 60 52 42 12 349 330 304 265 354 323 275 239 348 347 314 320 348 337 312 282 305 69 71 342 39 75 161 129 115 113 27 352 102 120 85 264 226 228 247 99 86 75 79 86 78 61 50 45
169 174 173 175 187 183 165 167 171 172 176 181 190 191 189 188 190 195 198 209 217 228 246 272 282 317 323 328 334 328 343 334 319 63 74 114 111 109 93 81 66 56 42 13 356 341 333 4 1 320 283 192 36 299 274 344 352 348 324 331 32 50 52 14 51 54 35 86 101 105 61 358 30 52 45 315 256 226 245 117 110 99 95 88 67 53 50 48
184 192 182 180 186 171 166 177 172 171 177 184 198 199 204 202 196 192 200 218 217 231 247 262 276 315 318 326 327 331 350 327 271 87 107 126 116 109 97 85 68 56 46 22 352 345 341 333 326 314 306 55 97 272 250 357 341 38 359 1 59 67 77 46 57 63 30 40 55 87 75 331 40 53 23 336 310 296 45 77 109 107 93 78 62 49 47 49
182 198 190 181 181 174 175 184 176 180 188 193 200 202 210 215 211 197 205 226 221 235 241 252 278 308 310 320 319 335 357 323 212 133 147 134 125 120 102 82 66 48 43 20 338 343 323 301 305 310 304 250 141 206 352 45 348 349 3 57 62 8 79 63 57 68 44 29 14 36 38 291 59 46 322 303 307 7 71 37 47 74 71 66 64 53 49 50
188 209 209 195 188 183 182 182 181 191 197 201 205 207 212 222 229 213 220 236 225 235 244 261 281 291 303 311 313 337 352 301 138 152 158 145 138 130 106 79 57 38 40 3 331 328 302 292 292 295 282 253 134 145 18 48 7 325 26 69 64 358 55 83 66 63 52 44 14 334 318 330 30 301 247 231 282 72 79 45 53 59 63 64 61 60 56 51
205 222 235 228 207 197 194 191 192 196 200 211 213 214 218 222 227 222 227 237 232 242 256 271 284 288 300 301 307 329 331 249 157 171 168 159 150 139 121 81 42 29 27 327 321 310 299 299 283 307 309 311 44 63 50 32 11 321 43 65 57 24 38 95 90 79 50 31 276 280 346 351 331 288 257 107 87 111 95 76 81 72 76 77 70 66 58 54
227 225 233 237 225 212 209 208 204 199 198 213 223 222 226 223 227 230 228 239 246 250 260 272 285 291 295 298 309 296 250 131 160 180 175 174 169 161 150 84 19 25 11 334 330 324 338 312 301 5 321 303 33 50 54 321 275 257 45 77 54 14 350 84 112 139 186 250 261 2 23 303 279 282 292 101 104 113 108 94 94 90 87 80 70 69 65 61
240 237 234 232 233 226 220 219 215 212 205 217 231 230 239 240 243 245 231 241 245 245 259 267 280 293 298 305 316 269 234 126 154 175 174 179 179 174 157 18 7 27 9 356 345 341 358 319 342 14 327 12 10 5 59 316 262 315 20 64 62 327 261 141 141 169 192 225 253 275 275 256 244 233 76 123 120 118 116 106 105 106 91 78 70 69 70 66
240 245 244 234 233 237 236 234 227 229 229 232 238 240 250 247 254 254 235 241 242 246 256 258 272 279 296 307 300 281 218 135 152 166 175 187 188 174 134 74 15 14 353 18 344 320 344 346 20 17 340 9 348 1 55 6 6 14 12 348 308 249 241 192 183 200 198 203 196 203 244 250 224 98 82 125 123 124 124 119 120 116 93 82 77 67 65 67
237 243 252 244 238 240 244 244 242 249 252 250 249 254 258 254 259 252 241 244 241 246 249 254 265 250 290 299 264 265 146 138 147 154 171 180 161 133 119 121 52 342 333 23 346 329 2 10 11 7 354 335 325 21 14 4 292 315 352 313 282 265 260 202 210 226 196 191 175 193 253 245 125 115 205 126 127 140 131 127 131 116 97 88 85 73 64 67
240 242 251 257 253 247 247 248 250 255 261 264 265 266 268 266 261 251 248 249 242 245 246 251 241 244 296 291 258 249 161 148 143 143 154 158 144 136 153 169 125 13 335 325 24 10 7 8 343 325 32 339 317 110 58 18 272 309 348 291 270 252 247 215 223 227 170 192 192 203 255 196 107 188 186 131 142 156 137 131 136 117 105 100 95 87 67 65
242 242 246 257 265 266 263 261 258 257 266 271 271 274 275 270 262 257 253 248 246 246 244 241 227 255 302 278 257 210 168 157 149 152 154 153 153 156 172 181 153 102 356 334 88 72 346 13 334 297 14 353 306 149 95 332 269 311 287 276 286 266 243 215 201 179 154 183 184 163 269 225 179 175 131 131 155 158 141 137 136 124 115 111 101 96 74 66
244 242 242 247 258 271 274 275 270 266 268 268 275 279 271 266 265 259 251 250 255 249 238 231 224 267 320 277 211 174 167 158 154 164 164 157 148 144 149 141 158 152 23 1 79 126 216 64 334 309 27 352 311 165 239 227 237 289 245 222 288 291 261 206 159 137 145 165 161 127 313 249 177 143 126 139 158 157 152 147 144 134 123 121 109 103 87 71
252 247 241 240 246 259 267 270 273 274 272 275 285 280 266 263 260 247 244 244 244 242 221 211 219 225 285 252 168 171 173 156 149 161 159 146 123 107 104 106 114 149 141 60 111 147 158 111 322 321 60 357 321 158 264 227 193 272 279 203 222 282 276 196 128 145 154 188 178 146 275 264 142 135 148 156 162 166 168 155 149 143 131 130 124 120 108 89
259 256 247 241 237 251 264 265 269 272 274 281 285 283 274 261 249 229 232 235 213 203 184 208 215 216 279 244 162 166 177 163 157 169 160 143 137 126 116 112 111 121 142 145 154 149 133 111 298 303 94 76 210 233 273 246 199 200 259 271 218 192 208 179 151 169 161 284 200 170 256 245 142 152 160 163 173 181 182 157 145 145 141 142 141 131 120 111
259 261 257 246 226 243 263 268 271 262 261 275 271 273 268 211 225 197 203 186 153 162 142 191 205 213 293 234 143 152 181 180 170 175 168 150 150 137 128 124 115 116 122 124 140 141 142 247 295 345 152 192 219 219 264 273 249 195 190 264 261 219 203 156 181 218 169 142 192 197 251 291 142 162 164 171 185 192 193 163 150 151 146 143 139 131 130 130
252 254 258 251 229 235 256 272 284 260 242 268 260 203 114 103 113 153 149 134 139 148 155 321 192 195 269 176 173 209 170 168 171 176 182 165 146 129 136 139 130 127 119 117 142 155 181 221 121 358 218 214 234 207 227 263 260 218 172 234 261 244 233 195 227 251 199 192 217 208 229 266 177 162 172 186 186 195 199 171 155 156 150 140 133 137 141 128
249 247 248 251 240 236 246 279 302 267 240 264 229 131 105 108 126 120 112 147 132 111 277 288 228 215 239 189 155 116 127 145 159 164 179 171 153 147 155 152 141 145 140 134 189 184 185 177 137 283 235 209 229 202 182 212 253 287 184 222 272 269 241 238 216 181 184 202 246 218 224 255 218 166 175 192 189 201 203 167 152 156 148 145 145 141 132 115
245 243 242 249 244 231 234 273 292 257 220 121 108 99 83 86 134 154 173 178 147 146 254 196 192 210 160 163 120 84 108 135 145 149 165 163 151 157 170 158 157 169 158 152 203 189 172 141 149 249 234 207 209 206 208 230 268 314 353 295 313 320 275 283 318 169 175 185 229 235 238 257 250 183 178 188 193 205 197 147 146 159 149 153 152 140 131 116
241 239 242 241 228 213 216 268 246 198 139 112 97 83 82 120 202 192 195 207 214 235 274 168 191 225 101 131 116 107 113 128 139 147 157 157 149 154 172 172 166 202 217 174 172 181 143 172 200 212 220 224 216 214 221 244 270 297 357 299 287 292 279 293 310 158 120 115 233 247 255 264 269 235 190 177 185 204 192 155 159 168 156 161 148 137 130 111
235 234 236 221 201 194 189 200 193 175 149 141 139 228 225 112 215 160 184 217 226 235 258 229 206 241 124 131 141 143 128 127 165 148 159 164 160 157 172 184 166 191 229 201 146 42 56 209 224 218 227 244 245 225 220 235 265 281 285 279 280 272 266 280 265 156 115 97 252 274 277 269 268 264 200 164 179 202 194 176 177 171 151 152 143 139 129 112
231 229 221 206 196 194 184 172 182 174 169 170 210 233 308 0 324 10 332 241 229 223 238 247 239 247 148 146 163 171 172 173 152 151 169 172 176 177 169 180 189 197 207 191 123 75 229 235 232 229 243 246 229 42 22 265 288 295 288 274 269 268 279 286 262 134 116 129 255 281 280 271 269 269 205 169 185 187 169 150 156 157 148 151 150 144 134 128
225 217 207 201 195 189 183 176 173 180 198 202 219 221 285 330 28 35 258 280 267 213 214 227 230 219 185 163 174 187 206 184 173 176 179 175 180 199 179 178 204 217 199 187 177 186 216 237 225 224 238 225 172 108 78 322 298 246 247 257 258 251 255 270 255 141 157 206 263 293 290 275 268 262 211 155 152 101 73 64 72 97 131 143 145 144 144 145
217 210 203 194 188 183 178 175 177 199 212 220 231 220 230 296 11 40 235 276 274 216 200 204 212 214 199 170 172 187 211 205 200 175 177 178 164 176 199 189 203 221 212 197 200 222 237 248 206 208 208 191 199 202 183 217 254 228 212 217 243 248 234 240 274 199 178 219 242 272 294 273 249 235 202 95 84 112 108 102 91 68 90 99 110 121 133 142
212 209 200 192 195 191 182 186 198 211 211 225 241 228 220 247 336 33 35 271 247 249 218 198 199 212 194 156 162 176 195 222 232 167 172 182 169 154 197 194 204 221 219 208 208 237 248 238 162 186 185 172 204 224 187 181 231 253 215 208 222 237 254 285 321 339 349 298 234 168 291 283 258 215 186 150 146 169 161 159 176 171 134 129 134 123 111 123
211 208 200 198 201 186 180 200 210 207 210 228 241 225 213 213 125 77 91 310 256 231 108 177 172 184 176 151 154 143 135 229 226 149 166 187 190 164 196 185 192 226 222 219 218 243 250 162 142 169 163 162 202 230 191 172 201 253 261 277 227 221 259 315 313 319 265 276 245 133 203 270 312 283 171 157 175 184 173 188 195 175 167 178 167 150 138 132
210 206 200 200 196 181 179 201 190 185 205 241 233 213 206 202 191 237 116 322 269 172 136 184 182 176 166 156 157 134 143 175 104 132 159 187 195 118 210 187 169 214 232 247 229 225 126 132 130 151 162 178 204 224 200 186 200 234 281 3 49 79 82 256 260 239 238 290 280 175 185 265 288 266 165 156 172 187 188 204 200 174 177 181 166 158 158 154
208 204 200 196 193 188 186 175 172 181 206 228 197 198 198 193 203 252 116 253 268 136 133 182 140 133 138 158 164 145 123 134 118 137 66 58 177 58 215 207 184 186 192 193 218 290 109 165 171 169 186 203 203 230 204 190 195 215 344 50 69 75 38 282 248 243 272 308 257 199 173 252 272 247 146 157 181 210 206 201 196 177 175 176 161 156 153 150
201 200 199 195 195 197 200 210 183 190 207 168 151 185 179 173 194 199 71 210 206 112 117 129 132 120 128 162 179 155 108 83 89 221 55 68 25 45 209 233 235 202 203 208 217 281 60 186 185 175 199 208 153 22 2 163 170 183 123 75 66 70 53 317 253 250 291 270 233 202 182 217 266 232 154 168 215 227 210 189 186 174 168 168 154 149 147 141
198 197 196 193 197 203 210 228 222 199 204 199 168 164 157 157 184 150 179 220 226 108 95 100 151 153 150 160 180 168 138 65 66 126 138 135 37 359 271 298 325 268 232 225 231 221 113 140 267 187 191 152 113 52 16 61 122 150 129 87 78 131 80 14 261 127 294 262 222 201 199 200 261 254 170 186 243 211 175 161 171 166 161 161 150 147 145 137
200 196 194 193 198 200 201 218 216 200 202 207 177 146 150 149 299 189 200 229 310 152 128 137 147 150 163 161 161 180 168 123 132 148 149 146 132 343 247 153 45 329 315 272 256 194 139 151 173 95 99 114 107 73 22 25 88 132 123 116 118 11 39 25 276 154 223 259 227 202 206 202 230 272 163 198 282 157 152 162 170 166 163 158 150 149 146 141
203 200 198 196 199 201 199 206 204 198 196 188 165 151 163 155 207 226 209 96 355 187 147 154 160 159 172 171 167 178 168 148 163 166 154 159 173 185 197 190 159 159 229 235 222 205 217 204 155 114 272 160 134 96 40 6 12 146 141 136 134 143 334 247 208 190 226 249 262 228 218 212 228 254 228 199 99 105 151 165 166 164 161 154 150 150 146 145
208 204 203 202 202 204 205 205 202 202 197 174 157 153 176 180 204 219 205 168 182 187 131 143 165 168 171 177 173 163 157 154 167 169 156 157 178 201 214 214 189 187 202 187 189 189 250 235 163 151 305 194 172 169 172 216 189 178 165 150 157 175 222 237 207 219 242 244 292 307 263 255 261 260 250 184 79 29 87 145 154 156 154 151 148 149 143 145
213 207 207 207 207 208 206 203 204 201 191 170 154 151 173 204 215 211 211 210 179 84 116 142 155 164 176 186 163 152 158 174 165 164 156 157 182 205 209 218 213 212 123 150 190 178 208 275 179 165 183 184 192 202 180 149 169 193 182 168 184 182 194 219 198 219 241 242 312 308 195 181 210 242 301 65 52 360 28 117 133 135 140 141 140 144 145 147
216 209 209 208 209 212 208 204 203 192 178 167 170 176 183 208 219 214 215 206 159 109 129 143 145 159 185 195 156 163 165 149 165 166 172 181 196 199 195 204 205 199 166 177 201 175 206 258 182 158 170 172 187 214 153 123 159 205 179 188 218 203 187 205 186 179 135 353 282 249 236 222 199 203 86 89 66 15 30 114 127 131 137 139 145 150 152 155
212 207 207 204 208 212 207 204 197 181 171 171 194 192 198 209 208 205 205 187 173 148 135 145 154 166 185 178 163 188 165 102 161 167 196 206 215 212 203 193 192 195 188 182 185 167 192 253 3 38 17 156 175 241 151 128 170 182 169 198 206 136 121 186 274 61 77 287 251 177 242 283 310 274 208 140 104 53 336 139 137 144 146 146 158 161 160 162
206 203 204 204 208 208 203 200 187 173 171 191 201 202 211 215 207 181 188 187 166 145 148 177 185 172 183 180 176 188 168 122 166 172 178 194 222 218 209 196 184 196 204 196 199 196 169 206 291 142 54 353 346 353 20 33 111 138 178 199 124 47 37 109 271 354 151 257 260 170 204 226 190 236 208 146 152 174 204 173 147 151 155 158 167 167 165 164
204 203 208 210 207 202 198 193 178 168 173 217 208 216 220 218 222 213 210 201 164 158 182 213 191 176 188 187 174 176 174 162 174 182 172 177 220 202 194 199 184 193 206 201 206 285 156 177 284 325 61 28 350 19 11 338 72 116 209 225 105 128 242 152 194 250 211 243 276 208 204 203 200 203 173 188 195 181 188 189 168 165 168 169 169 169 167 161
204 202 226 212 202 197 193 186 174 166 189 206 207 220 220 217 225 231 312 266 182 174 199 215 200 195 199 192 169 168 181 178 166 178 186 182 215 194 181 188 190 191 196 193 200 232 127 181 245 319 1 98 55 156 182 214 212 67 347 325 74 164 201 169 192 219 196 237 266 237 213 220 221 190 176 196 197 176 177 188 186 178 175 173 171 171 171 166
199 205 244 198 193 192 186 179 170 168 193 204 210 215 209 210 217 221 338 298 202 180 206 212 206 206 204 199 180 164 185 191 171 183 202 179 191 211 184 179 182 184 182 187 199 171 102 207 209 314 333 122 156 208 193 194 198 184 199 231 192 170 141 230 246 206 176 225 250 256 261 254 254 246 190 195 186 176 179 184 187 181 174 175 172 172 172 169
190 232 215 178 182 181 174 171 177 179 187 209 219 221 215 211 213 209 204 27 32 45 274 226 212 208 201 201 190 161 176 197 183 186 203 189 191 212 193 181 172 161 153 174 201 186 163 194 173 168 248 206 212 222 192 183 188 191 197 195 193 182 157 215 244 218 181 211 206 235 265 258 255 340 325 182 169 177 180 177 177 175 172 174 172 172 174 172
195 236 177 168 174 169 162 177 193 173 195 209 205 211 206 214 224 206 198 210 2 115 123 352 231 208 200 199 190 162 165 192 195 190 200 205 198 192 245 234 160 154 144 163 201 190 127 122 176 195 199 208 228 133 114 121 138 199 236 204 190 189 184 205 226 209 182 237 182 127 275 272 275 333 354 25 87 144 159 160 165 171 171 169 166 167 171 172
215 227 157 166 170 165 163 202 179 174 218 209 202 216 194 208 222 196 194 209 210 183 183 231 287 225 273 216 173 164 166 187 202 196 198 203 194 211 313 338 147 158 152 153 189 141 83 108 185 223 287 18 339 115 86 42 82 228 259 208 197 209 203 208 216 170 185 214 157 173 259 266 315 3 4 15 42 76 122 146 154 161 162 161 163 164 167 167
208 232 153 172 171 168 173 196 176 194 210 184 200 221 212 218 214 197 194 200 203 198 199 215 239 139 101 21 29 168 171 193 211 203 196 195 191 356 340 351 124 162 159 153 172 160 156 152 159 200 241 265 281 185 347 340 193 213 228 201 207 213 195 198 194 175 247 210 160 189 246 251 292 350 7 27 67 81 98 127 145 155 160 162 160 160 163 159
179 136 331 193 177 175 189 192 177 190 197 183 197 210 210 216 214 207 198 195 204 208 203 223 246 151 125 64 27 284 212 207 199 192 118 141 95 3 360 356 2 111 114 15 355 172 171 160 167 196 222 227 228 223 222 205 178 214 217 195 207 208 192 185 172 216 239 203 162 208 238 225 225 202 157 143 125 120 112 110 126 142 150 155 158 160 162 161
187 201 206 259 227 201 237 202 178 179 186 187 195 206 207 210 217 209 195 195 201 193 172 80 160 173 173 161 185 231 234 292 63 114 181 140 109 10 6 6 23 63 77 38 19 92 128 169 195 203 222 231 223 214 221 151 156 198 209 198 204 208 197 188 200 217 221 176 194 223 209 171 202 184 173 180 158 146 150 134 125 132 137 144 150 150 148 150
209 219 174 176 231 236 285 286 187 184 185 185 186 192 200 205 200 167 204 205 186 166 136 22 176 192 196 197 213 225 215 195 86 175 184 132 99 51 33 35 48 56 62 47 18 94 113 208 215 211 227 235 192 161 319 85 184 208 213 206 205 206 197 197 215 213 173 169 231 216 168 183 211 187 178 183 165 159 170 163 150 149 149 147 145 140 139 145
208 211 179 185 188 198 218 219 195 194 189 183 188 190 193 201 198 187 200 198 159 166 173 237 219 209 202 195 205 216 194 183 218 208 174 119 125 129 59 22 54 76 81 56 328 110 141 220 219 212 229 232 92 51 349 52 211 231 232 216 207 203 200 204 218 213 177 195 236 191 174 200 207 185 184 179 172 175 174 167 160 153 149 146 145 151 160 164
195 302 253 219 213 196 207 199 184 198 193 182 194 198 192 201 203 195 171 138 178 195 192 211 220 210 203 191 186 194 187 192 221 219 177 145 157 150 127 195 191 121 116 138 212 118 159 216 197 194 229 227 59 342 351 86 246 276 263 236 216 211 206 211 223 220 200 228 236 121 195 231 193 174 182 165 167 167 145 138 137 135 140 144 152 165 175 177
174 229 169 179 299 215 202 180 162 199 201 188 198 203 198 205 204 196 164 163 191 195 191 217 222 203 195 192 184 205 206 202 217 212 161 153 178 177 187 189 149 117 142 156 168 160 192 202 145 141 222 237 268 335 25 86 238 266 260 250 233 214 207 218 231 219 216 244 232 113 225 264 346 103 116 108 117 114 106 111 116 128 146 154 164 176 180 185
136 308 7 164 197 183 182 177 172 197 207 192 201 202 203 212 205 193 186 192 199 187 188 213 219 191 183 195 201 218 217 204 215 203 164 173 189 182 192 180 146 149 169 171 162 165 182 190 112 147 210 230 224 167 143 62 31 279 261 241 211 190 197 213 221 199 206 226 210 150 228 235 126 69 68 70 90 107 124 135 137 160 166 166 179 184 184 191
121 325 332 188 200 182 176 182 182 195 202 198 207 205 205 217 207 185 188 214 212 203 200 209 203 149 168 205 212 220 210 164 168 161 146 159 144 127 148 155 153 164 172 174 170 165 177 180 158 178 206 224 185 164 142 85 18 266 258 225 185 188 206 205 197 198 203 192 171 207 220 181 124 97 84 86 127 158 189 189 182 183 173 178 192 187 183 190